Location: Le Rocchette
(44.3500°N, 7.8333°E)
Time: 17:19:30
(UTC+00:00)

Meteor 1-26 Rocket - Pass Details

Date: 17 November 2019
Orbit: 816 x 919 km, 81.3° (Epoch: 11 December)

Event Time Altitude Azimuth Distance (km) Brightness Sun altitude
Rises 05:45:44 0° 347° (NNW) 3,486 7.1 -7.6°
Reaches altitude 10° 05:48:14 10° 345° (NNW) 2,527 6.4 -7.2°
Maximum altitude 05:53:55 68° 264° (W) 916 4.2 -6.2°
Drops below altitude 10° 05:59:24 10° 182° (S) 2,442 6.9 -5.3°
Sets 06:01:47 0° 180° (S) 3,360 7.6 -4.9°
